GW2968 Weather Reports


time (UTC)temp
F
wind
direction
speed
knots
gust
knots
rain 1hr
in
rain 24hr
in
rain mn
in
humidity
%
barometer
mb
20260502123043 73 240 2.6 7.8 0.00 0.00 0.00 46 1017.0
20260502121537 74 144 1.7 8.7 0.00 0.00 0.00 46 1017.2
20260502114638 73 159 2.6 7.0 0.00 0.00 0.00 45 1017.6
20260502113029 72 290 2.6 9.6 0.00 0.00 0.00 45 1017.7
20260502111523 72 279 2.6 11.3 0.00 0.00 0.00 44 1017.9
20260502110020 72 313 2.6 7.0 0.00 0.00 0.00 44 1018.1
20260502104615 72 126 0.0 7.0 0.00 0.00 0.00 46 1018.2
20260502103013 71 79 0.9 5.2 0.00 0.00 0.00 43 1018.4
20260502101510 71 288 2.6 6.1 0.00 0.00 0.00 43 1018.5
20260502071522 61 110 0.0 4.3 0.00 0.00 0.00 54 1020.1
20260502070019 59 101 0.0 2.6 0.00 0.00 0.00 53 1020.2
20260502064528 55 105 0.0 0.9 0.00 0.00 0.00 40 1020.5
20260502063018 55 105 0.0 0.0 0.00 0.00 0.00 30 1020.1
20260502061506 53 184 0.0 0.0 0.00 0.00 0.00 25 1020.3
20260502060002 50 184 0.0 0.0 0.00 0.00 0.00 100 1020.3
20260502054559 47 184 0.0 0.9 0.00 0.00 0.00 100 1020.3
20260502053058 46 184 0.0 1.7 0.00 0.00 0.00 100 1020.3
20260502051549 43 150 0.0 0.0 0.00 0.00 0.00 100 1020.3
20260502050047 43 150 0.0 0.0 0.00 0.00 0.00 100 1020.2
20260502044540 42 150 0.0 0.0 0.00 0.00 0.00 100 1020.4
20260502043058 42 150 0.0 0.0 0.00 0.00 0.00 100 1020.5
20260502041540 41 150 0.0 0.0 0.00 0.00 0.00 100 1020.4
20260502040029 41 150 0.0 0.0 0.00 0.00 0.00 100 1020.4
20260502034525 42 150 0.0 0.0 0.00 0.00 0.00 100 1020.5
20260502033027 42 150 0.0 0.0 0.00 0.00 0.00 100 1020.6
20260502031518 41 150 0.0 0.0 0.00 0.00 0.00 100 1020.6
20260502030014 42 150 0.0 0.0 0.00 0.00 0.00 3 1020.6
20260502024514 43 150 0.0 0.0 0.00 0.00 0.00 4 1020.6
20260502023008 43 150 0.0 0.0 0.00 0.00 0.00 7 1020.6
20260502021504 43 150 0.0 0.0 0.00 0.00 0.00 13 1020.7
20260502020001 44 150 0.0 0.0 0.00 0.00 0.00 19 1020.9
20260502014558 44 150 0.0 0.0 0.00 0.00 0.00 21 1020.9
20260502013101 44 150 0.0 0.0 0.00 0.00 0.00 23 1021.0
20260502011602 45 150 0.0 0.0 0.00 0.00 0.00 34 1021.2
20260502010107 46 150 0.0 0.0 0.00 0.00 0.00 37 1021.3
20260502004549 47 150 0.0 0.0 0.00 0.00 0.00 41 1021.4
20260502003044 47 150 0.0 0.0 0.00 0.00 0.00 43 1021.6
20260502001544 47 150 0.0 0.0 0.00 0.00 0.00 47 1021.6
20260502000044 48 150 0.0 0.0 0.00 0.00 0.00 48 1021.7
20260501234542 48 150 0.0 0.0 0.00 0.00 0.00 42 1021.9
20260501233043 47 150 0.0 0.0 0.00 0.00 0.00 41 1021.9
20260501231541 47 150 0.0 0.0 0.00 0.00 0.00 43 1022.0
20260501230039 47 150 0.0 0.0 0.00 0.00 0.00 45 1021.9
20260501224537 47 150 0.0 0.0 0.00 0.00 0.00 46 1022.0
20260501223036 48 150 0.0 0.0 0.00 0.00 0.00 49 1022.1
20260501221535 48 150 0.0 0.0 0.00 0.00 0.00 50 1022.1
20260501220038 48 150 0.0 0.0 0.00 0.00 0.00 51 1022.2
20260501214535 49 150 0.0 0.0 0.00 0.00 0.00 54 1022.2
20260501213036 50 150 0.0 0.0 0.00 0.00 0.00 55 1022.1
20260501211536 50 150 0.0 0.0 0.00 0.00 0.00 56 1022.2
20260501210033 51 150 0.0 0.0 0.00 0.00 0.00 56 1022.2
20260501204544 52 150 0.0 0.0 0.00 0.00 0.00 56 1022.2
20260501203031 53 150 0.0 0.0 0.00 0.00 0.00 55 1022.2
20260501201529 55 150 0.0 0.0 0.00 0.00 0.00 53 1022.3
20260501200032 57 150 0.0 0.0 0.00 0.00 0.00 51 1022.3
20260501194529 58 150 0.0 0.0 0.00 0.00 0.00 47 1022.3
20260501193028 59 150 0.0 0.0 0.00 0.00 0.00 46 1022.3
20260501191536 60 150 0.0 1.7 0.00 0.00 0.00 45 1022.2
20260501190027 60 150 0.0 1.7 0.00 0.00 0.00 43 1022.3
20260501184541 62 150 0.0 2.6 0.00 0.00 0.00 42 1022.4
20260501183035 63 150 0.0 1.7 0.00 0.00 0.00 41 1022.2
20260501181529 66 149 0.0 2.6 0.00 0.00 0.00 38 1022.2
20260501180029 67 83 0.0 3.5 0.00 0.00 0.00 37 1022.1
20260501174528 68 84 0.9 3.5 0.00 0.00 0.00 34 1022.0
20260501173029 69 51 0.9 3.5 0.00 0.00 0.00 33 1022.0
20260501171541 69 113 0.9 7.0 0.00 0.00 0.00 33 1022.0
20260501170026 69 92 0.9 4.3 0.00 0.00 0.00 33 1022.1
20260501164526 69 117 1.7 6.1 0.00 0.00 0.00 32 1022.2
20260501163029 69 18 2.6 6.1 0.00 0.00 0.00 33 1022.2
20260501161529 69 116 3.5 7.0 0.00 0.00 0.00 34 1022.4
20260501160027 69 80 1.7 8.7 0.00 0.00 0.00 33 1022.5
20260501154537 69 116 0.9 7.8 0.00 0.00 0.00 35 1022.6
20260501153022 69 121 1.7 7.0 0.00 0.00 0.00 35 1022.8
20260501151520 69 156 3.5 7.8 0.00 0.00 0.00 33 1023.0